Location: Natural Bridges National Monument
(37.6093°N, 109.9767°W)
Time: 12:01:04
(UTC-06:00)

USA 32 - Visible Passes

Search period start: 20 September 2014 00:00
Search period end: 30 September 2014 00:00
Orbit: 779 x 783 km, 85.0° (Epoch: 02 September)

Date Brightness Start Highest point End Pass type
(mag) Time Alt. Az. Time Alt. Az. Time Alt. Az.
20 Sep 6.5 06:10:20 10° SE 06:14:35 26° E 06:18:51 10° NNE visible
20 Sep 7.9 20:06:39 10° WNW 20:07:39 11° WNW 20:08:38 10° W visible
21 Sep 7.3 05:39:36 10° ESE 05:42:18 14° E 05:45:00 10° NE visible
23 Sep 5.5 06:12:42 10° SSE 06:17:36 42° E 06:22:30 10° NNE visible
24 Sep 6.5 05:41:09 10° SE 05:45:13 24° E 05:49:17 10° NNE visible
24 Sep 7.7 19:36:25 10° WNW 19:38:17 12° W 19:40:09 10° W visible
25 Sep 7.2 05:10:42 10° ESE 05:12:56 13° E 05:15:11 10° NE visible
26 Sep 4.4 06:15:29 10° S 06:20:40 71° E 06:25:53 10° N visible
27 Sep 5.6 05:43:25 10° SSE 05:48:12 38° E 05:53:00 10° NNE visible
28 Sep 6.6 05:11:59 10° SE 05:15:50 21° E 05:19:42 10° NE visible
29 Sep 7.2 04:41:58 10° E 04:43:35 11° E 04:45:12 10° ENE visible
29 Sep 4.0 06:18:37 10° S 06:23:49 71° W 06:29:03 10° N visible
